Fairbanks Ft. Wainwright, AK

5:48 AM AKDT on August 19, 2017 (GMT -0800)
Ladd Army Air Field

Weather History for PAFB - October, 2012

Change the Weather History Date:

Monday, October 15, 2012

  Actual Average Record
Temperature  
Mean Temperature 23 °F -  
Max Temperature 25 °F 28 °F 48 °F (2013)
Min Temperature 21 °F 15 °F 3 °F (1997)
Degree Days  
Heating Degree Days 42    
Moisture  
Dew Point 18 °F    
Average Humidity 78    
Maximum Humidity 93    
Minimum Humidity 64    
Precipitation  
Precipitation 0.01 in - - ()
Snow  
Snow 0.00 in - - ()
Snow Depth 1.00 in    
Sea Level Pressure  
Sea Level Pressure 29.23 in    
Wind  
Wind Speed 4 mph (WSW)    
Max Wind Speed 13 mph    
Max Gust Speed -    
Visibility 4 miles    
Events Snow    
Averages and records for this station are not official NWS values.
T = Trace of Precipitation, MM = Missing Value Source: NWS Daily Summary

Daily Weather History Graph

Daily Weather History Graph

Search for Another Location

Airport or City:

Trip Planner

Search our weather history database for the weather conditions in past years. The results will help you decide how hot, cold, wet, or windy it might be!

Date:

Astronomy

Oct. 15, 2012 Rise Set
Actual Time 8:45 AM AKDT 6:25 PM AKDT
Civil Twilight 7:54 AM AKDT 7:15 PM AKDT
Nautical Twilight 6:58 AM AKDT 8:12 PM AKDT
Astronomical Twilight 6:00 AM AKDT 9:09 PM AKDT
Moon 9:37 AM AKDT (10/15) 5:54 PM AKDT (10/15)
Length of Visible Light 11h 20m
Length of Day
9h 40m
New Moon, 0% of the Moon is Illuminated
Oct 15
New Moon
Oct 21
First Quarter
Oct 29
Full
Nov 6
Last Quarter
Nov 13
New

Hourly Weather History & Observations

Time (AKDT) Temp. Windchill Dew Point Humidity Pressure Visibility Wind Dir Wind Speed Gust Speed Precip Events Conditions
12:56 AM 24.1 °F 19.7 °F 16.0 °F 71% 29.27 in 10.0 mi ENE 3.5 mph - N/A   Overcast
1:56 AM 24.1 °F 19.7 °F 16.0 °F 71% 29.27 in 10.0 mi NE 3.5 mph - N/A   Overcast
2:56 AM 25.0 °F - 15.1 °F 66% 29.26 in 10.0 mi Calm Calm - N/A   Overcast
3:56 AM 24.1 °F - 15.1 °F 69% 29.25 in 10.0 mi Calm Calm - N/A   Overcast
4:56 AM 24.1 °F - 18.0 °F 77% 29.24 in 10.0 mi Calm Calm - N/A   Overcast
5:56 AM 24.1 °F 19.7 °F 17.1 °F 75% 29.23 in 10.0 mi WSW 3.5 mph - N/A   Overcast
6:25 AM 24.8 °F - 17.6 °F 74% 29.20 in 7.0 mi SW 1.2 mph - N/A   Mostly Cloudy
6:55 AM 24.8 °F 20.5 °F 15.8 °F 69% 29.22 in 7.0 mi Variable 3.5 mph - N/A   Mostly Cloudy
7:55 AM 24.8 °F 20.5 °F 14.0 °F 64% 29.23 in 7.0 mi West 3.5 mph - N/A   Mostly Cloudy
8:55 AM 24.8 °F 17.9 °F 15.8 °F 69% 29.22 in 7.0 mi WNW 5.8 mph - N/A   Overcast
9:55 AM 24.8 °F 19.1 °F 15.8 °F 69% 29.22 in 7.0 mi WNW 4.6 mph - N/A   Overcast
10:55 AM 24.8 °F - 15.8 °F 69% 29.22 in 7.0 mi West 2.3 mph - N/A   Overcast
11:25 AM 24.8 °F 20.5 °F 15.8 °F 69% 29.20 in 7.0 mi West 3.5 mph - N/A Snow Light Snow
12:55 PM 24.8 °F - 14.0 °F 64% 29.22 in 7.0 mi Variable 2.3 mph - N/A Snow Light Snow
12:57 PM 24.8 °F - 14.0 °F 64% 29.22 in 7.0 mi Variable 2.3 mph - N/A Snow Light Snow
1:38 PM 24.8 °F 19.1 °F 15.8 °F 69% 29.20 in 3.0 mi Variable 4.6 mph - N/A Snow Light Snow
1:47 PM 24.8 °F 20.5 °F 15.8 °F 69% 29.20 in 2.0 mi Variable 3.5 mph - N/A Snow Light Snow
1:55 PM 24.8 °F - 15.8 °F 69% 29.23 in 1.5 mi Variable 1.2 mph - N/A Snow Light Snow
2:32 PM 24.8 °F 20.5 °F 19.4 °F 80% 29.20 in 1.2 mi West 3.5 mph - N/A Snow Light Snow
2:42 PM 24.8 °F 19.1 °F 19.4 °F 80% 29.20 in 1.0 mi West 4.6 mph - N/A Snow Light Snow
2:55 PM 24.8 °F 17.9 °F 19.4 °F 80% 29.23 in 1.0 mi WNW 5.8 mph - N/A Snow Light Snow
3:09 PM 24.8 °F 19.1 °F 19.4 °F 80% 29.20 in 1.5 mi West 4.6 mph - N/A Snow Light Snow
3:28 PM 24.8 °F 17.9 °F 21.2 °F 86% 29.20 in 1.0 mi West 5.8 mph - N/A Snow Light Snow
3:47 PM 24.8 °F 17.9 °F 21.2 °F 86% 29.20 in 1.0 mi West 5.8 mph - N/A Snow Light Snow
3:55 PM 24.8 °F 17.9 °F 19.4 °F 80% 29.23 in 1.0 mi West 5.8 mph - N/A Snow Light Snow
4:12 PM 24.8 °F 19.1 °F 19.4 °F 80% 29.21 in 1.5 mi WSW 4.6 mph - N/A Snow Light Snow
4:24 PM 24.8 °F 19.1 °F 21.2 °F 86% 29.20 in 1.2 mi WSW 4.6 mph - N/A Snow Light Snow
4:35 PM 24.8 °F 17.9 °F 21.2 °F 86% 29.20 in 0.8 mi SW 5.8 mph - N/A Snow Light Snow
4:55 PM 24.8 °F 19.1 °F 21.2 °F 86% 29.23 in 0.8 mi WSW 4.6 mph - N/A Snow Light Snow
5:48 PM 24.8 °F 17.9 °F 21.2 °F 86% 29.20 in 0.8 mi WSW 5.8 mph - N/A Snow Light Snow
5:55 PM 24.8 °F 20.5 °F 21.2 °F 86% 29.23 in 0.8 mi SW 3.5 mph - N/A Snow Light Snow
6:42 PM 24.8 °F 15.3 °F 19.4 °F 80% 29.21 in 1.5 mi WSW 9.2 mph - N/A Snow Light Snow
6:55 PM 24.8 °F 15.3 °F 19.4 °F 80% 29.23 in 1.5 mi WSW 9.2 mph - N/A Snow Light Snow
7:19 PM 24.8 °F 16.1 °F 19.4 °F 80% 29.21 in 2.0 mi WSW 8.1 mph - N/A Snow Light Snow
7:47 PM 23.0 °F 14.7 °F 19.4 °F 86% 29.22 in 3.0 mi WSW 6.9 mph - N/A Snow Light Snow
7:55 PM 23.0 °F 14.7 °F 19.4 °F 86% 29.24 in 3.0 mi WSW 6.9 mph - N/A Snow Light Snow
8:55 PM 23.0 °F 13.9 °F 19.4 °F 86% 29.25 in 2.5 mi WSW 8.1 mph - N/A Snow Light Snow
9:26 PM 23.0 °F 12.4 °F 19.4 °F 86% 29.23 in 2.0 mi WSW 10.4 mph - N/A Snow Light Snow
9:55 PM 23.0 °F 11.1 °F 19.4 °F 86% 29.27 in 2.0 mi WSW 12.7 mph - N/A Snow Light Snow
10:10 PM 21.2 °F 10.1 °F 19.4 °F 93% 29.25 in 2.5 mi WSW 10.4 mph - 0.00 in Snow Light Snow
10:18 PM 21.2 °F 10.1 °F 19.4 °F 93% 29.25 in 4.0 mi WSW 10.4 mph - 0.00 in Snow Light Snow
10:54 PM 21.2 °F 11.7 °F 17.6 °F 86% 29.26 in 2.5 mi SW 8.1 mph - 0.00 in Snow Light Snow
10:56 PM 21.9 °F 13.4 °F 18.0 °F 85% 29.29 in 2.5 mi SW 6.9 mph - 0.00 in Snow Light Snow
11:56 PM 21.0 °F 10.6 °F 17.1 °F 85% 29.30 in 3.0 mi WSW 9.2 mph - 0.01 in Snow Light Snow